AirNav   Pilot Hours Calculator
 
 531 users online  

KBTA Blair Municipal Airport
Blair, Nebraska, USA

GOING TO BLAIR?


FAA INFORMATION EFFECTIVE 31 DECEMBER 2020

Location

FAA Identifier: BTA
Lat/Long: 41-24-53.3000N 096-06-32.3000W
41-24.888333N 096-06.538333W
41.4148056,-96.1089722
(estimated)
SURVEYED
Elevation: 1317.6 ft. / 401.6 m (surveyed)
Variation: 03E (2010)
From city: 7 miles S of BLAIR, NE
Time zone: UTC -6 (UTC -5 during Daylight Saving Time)
Zip code: 68008

Airport Operations

Airport use: Open to the public
Activation date: 11/1961
Control tower: no
ARTCC: MINNEAPOLIS CENTER
FSS: COLUMBUS FLIGHT SERVICE STATION
NOTAMs facility: BTA (NOTAM-D service available)
Attendance: ON CALL
FOR SERVICE CALL 402-533-2247.
Wind indicator: yes
Segmented circle: no
Lights: ACTVT MIRL RY 13/31; PAPI RYS 13 & 31, AND REIL RY 31-CTAF.
Beacon: white-green (lighted land airport)
Operates sunset to sunrise.

Airport Communications

CTAF/UNICOM: 123.05
WX AWOS-3: 120.225 (402-426-0448)
OMAHA APPROACH: 120.1
OMAHA DEPARTURE: 120.1
WX ASOS at OMA (12 nm SE): PHONE 402-271-7515
WX AWOS-3 at MLE (13 nm S): 118.25 (402-895-6778)
WX AWOS-3 at CBF (18 nm SE): 126.575 (712-323-1542)
WX AWOS-3 at FET (19 nm W): 121.275 (402-727-9135)

Nearby radio navigation aids

VOR radial/distance  VOR name  Freq  Var
OVRr304/22.4OMAHA VORTAC116.3008E
SCBr110/26.0SCRIBNER VOR/DME111.0006E

 
NDB name  Hdg/Dist  Freq  Var  ID
WAHOO058/24.440006EAHQ .- .... --.-
PLATTSMOUTH338/29.632905EPMV .--. -- ...-

Airport Services

Fuel available: 100LL JET-A
24 HR SELF SVC FUEL AVBL WITH CREDIT CARD.
Parking: tiedowns
Airframe service: NONE
Powerplant service: NONE
Bottled oxygen: NONE
Bulk oxygen: NONE

Runway Information

Runway 13/31

Dimensions: 4201 x 100 ft. / 1280 x 30 m
Surface: concrete, in good condition
Weight bearing capacity: 
Single wheel: 30.0
Double wheel: 60.0
Runway edge lights: medium intensity
RUNWAY 13  RUNWAY 31
Latitude: 41-25.142322N41-24.634833N
Longitude: 096-06.849940W096-06.225678W
Elevation: 1317.6 ft.1298.4 ft.
Traffic pattern: leftleft
Runway heading: 134 magnetic, 137 true314 magnetic, 317 true
Markings: nonprecision, in good conditionnonprecision, in good condition
Visual slope indicator: 2-light PAPI on left (3.00 degrees glide path)2-light PAPI on left (3.00 degrees glide path)
Runway end identifier lights: noyes
Touchdown point: yes, no lightsyes, no lights
Obstructions: 46 ft. trees, 1650 ft. from runway, 457 ft. right of centerline, 31:1 slope to clear53 ft. pole, 1928 ft. from runway, 407 ft. right of centerline, 32:1 slope to clear

Airport Ownership and Management from official FAA records

Ownership: Publicly-owned
Owner: BLAIR AIRPORT AUTH
218 SOUTH 16TH ST
BLAIR, NE 68008-2000
Phone 402-426-4191
Manager: RODNEY STORM
218 SOUTH 16TH ST
BLAIR, NE 68008-2000
Phone 402-426-4191
CITY ADMINISTRATOR

Airport Operational Statistics

Aircraft based on the field: 60
Single engine airplanes: 45
Multi engine airplanes: 4
Jet airplanes: 6
Helicopters: 1
Gliders airplanes: 4
    
Aircraft operations: avg 42/day *
90% local general aviation
10% transient general aviation
* for 12-month period ending 09 May 2018

Additional Remarks

GLIDER ACTIVITY ON & INVOF ARPT.
FOR NOISE ABATEMENT PROCEDURES CONTACT AMGR ON 402-426-4191.
FOR CD CTC OMAHA APCH AT 402-682-4395.

Instrument Procedures

NOTE: All procedures below are presented as PDF files. If you need a reader for these files, you should download the free Adobe Reader.

NOT FOR NAVIGATION. Please procure official charts for flight.
FAA instrument procedures published for use from 31 December 2020 at 0901Z to 28 January 2021 at 0900Z.

 
IAPs - Instrument Approach Procedures
RNAV (GPS) RWY 13   download (258KB)
RNAV (GPS) RWY 31   download (253KB)
NOTE: Special Alternate Minimums apply   download (25KB)
NOTE: Special Take-Off Minimums/Departure Procedures apply   download (147KB)

Other nearby airports with instrument procedures:

KOMA - Eppley Airfield (12 nm SE)
KMLE - Millard Airport (13 nm S)
KCBF - Council Bluffs Municipal Airport (18 nm SE)
KFET - Fremont Municipal Airport (19 nm W)
KOFF - Offutt Air Force Base (20 nm SE)
 
Loc | Ops | Rwys | IFR | FBO | Links
Com | Nav | Svcs | Stats | Notes

Silverhawk Aviation, Inc.
AirBoss

 
Area around KBTA (Blair Municipal Airport)
 
Road maps at: MapQuest Bing Google
 
Aerial photo
WARNING: Photo may not be current or correct
Aerial photo of KBTA (Blair Municipal Airport)
Photo by Phil Thompson
Photo taken 14-Apr-2014
looking north

Do you have a better or more recent aerial photo of Blair Municipal Airport that you would like to share? If so, please send us your photo.

 
Sectional chart

 
Airport diagram
CAUTION: Diagram may not be current
Diagram of KBTA (Blair Municipal Airport)
 
Airport distance calculator
Flying to Blair Municipal Airport? Find the distance to fly.

From to KBTA

Sunrise and sunset
Times for 16-Jan-2021
 Local
(UTC-6)
 Zulu
(UTC)
Morning civil twilight07:1913:19
Sunrise07:4913:49
Sunset17:2023:20
Evening civil twilight17:5023:50

Current date and time
Zulu (UTC)  16-Jan-2021 12:17:03
Local (UTC-6)  16-Jan-2021 06:17:03
 
METAR
KBTA 161155Z AUTO 32009KT 10SM OVC011 M03/M05 A2987 RMK AO2 T10291048 11016 21029
KOMA 
11nm SE 
161152Z 32015KT 10SM OVC014 M02/M05 A2988 RMK AO2 SLP129 70008 T10221050 11011 21022 58007
KMLE 
13nm S 
161155Z AUTO 32009G15KT 10SM OVC015 M01/M05 A2990 RMK AO2 T10131050 10000 21013
KCBF 
18nm SE 
161155Z AUTO 32011G17KT 10SM OVC011 M03/M03 A2985 RMK AO2
KFET 
18nm W 
161155Z AUTO 32009KT 10SM BKN017 BKN027 OVC040 M02/M05 A2990 RMK AO2 T10201050 11010 21021
KOFF 
20nm SE 
161156Z AUTO 32010KT 10SM OVC013 M02/M05 A2988 RMK AO2 SLP134 T10201053 11008 21020 56008 $
TAF
KOMA 
11nm SE 
161120Z 1612/1712 33014G22KT P6SM OVC018 FM161700 32010KT P6SM OVC019 FM162300 32010KT P6SM BKN035
KOFF 
20nm SE 
161000Z 1610/1716 33009KT 9999 OVC015 620154 QNH2989INS BECMG 1619/1620 33009KT 9999 OVC020 620202 QNH2987INS BECMG 1704/1705 30006KT 9999 BKN050 620505 QNH2986INS BECMG 1712/1713 33009KT 9999 OVC020 620205 QNH2989INS TX01/1620Z TNM04/1708Z
NOTAMs
Click for the latest NOTAMs
NOTAMs are issued by the DoD/FAA and will open in a separate window not controlled by AirNav.

 

 
 

FBO, Fuel Providers, and Aircraft Ground Support

  
 Business Name 
 
 Contact 
 
 Services / Description 
 
Fuel Prices
 
Comments
  
SkyWerx Aviation 123.05
402-533-2247
[web site]
[email]
FIRST CLASS ALTERNATIVE TO OMAHA
Conveniently locted from Omaha business centers

Aviation Fuel with the lowest price in the region
More info and photos of SkyWerx Aviation
 
Phillips 66® Aviation Contract Fuel   Crew cars   Hertz   Wireless Internet Access (WiFi)  
 
Phillips 66
100LL Jet A
FS --- $3.29 
SS $4.19 --- 
GUARANTEED
 
   2 read write
FS=Full service
SS=Self service
Update Fuel Prices
 

Would you like to see your business listed on this page?

 If your business provides an interesting product or service to pilots, flight crews, aircraft, or users of the Blair Municipal Airport, you should consider listing it here.  To start the listing process, click on the button below
 
Add a business
 

Other Pages about Blair Municipal Airport

www.blairairport.com
 
Update a link
 
Copyright © AirNav, LLC. All rights reserved. Privacy Policy  Contact